Tracking 35274 objects as of 11-Sep-2026
HD Live streaming from Space Station
objects crossing your sky now

SL-4 DEB


SL-4 DEB is no longer on orbit


NORAD ID: 23184
Int'l Code: 1994-042C
Launch date: July 20, 1994
Source: Commonwealth of Independent States (former USSR) (CIS)
Launch site: PLESETSK MISSILE AND SPACE COMPLEX (PKMTR)
Decay date: 1994-07-22

Note: This is SATELLITE DEBRIS
Your satellite tracking list
Your tracking list is empty




NASA's NSSDC Master Catalog

Two Line Element Set (TLE):
1 23184U 94042  C 94202.34492184  .10821438 +29292-4 +22538-2 0  9996
2 23184 067.0746 186.3961 0082002 097.6890 277.6183 16.21548845000104
Source of the keplerian elements: AFSPC